GEFSMW_500_meanwind_024.txt.gz
Wind_Speed
27 25 22 21 20 21 24 27 29 31 33 33 32 31 31 30 31 30 33 34 34 35 36 35 34 35 33 32 32 33 35 37 38 39 41 42 43 43 44 45 46 47 49
29 28 26 24 23 23 26 28 31 33 35 35 35 33 33 32 30 29 29 31 33 34 34 34 34 33 33 33 34 35 37 38 38 40 41 42 44 45 46 47 48 50 52
31 31 29 27 26 26 28 30 33 36 37 37 36 36 35 33 30 29 28 28 29 31 32 32 33 34 35 37 37 38 39 40 41 42 43 44 45 47 49 50 52 54 57
33 33 32 31 30 30 31 34 37 38 40 39 38 38 37 36 32 28 27 26 27 28 30 31 34 35 37 38 40 41 43 44 45 45 47 48 49 51 53 54 57 59 62
36 35 34 34 34 35 36 38 40 42 42 41 41 39 39 36 32 28 27 26 27 28 30 34 36 37 40 42 44 45 47 48 49 51 52 53 55 56 58 59 61 63 65
38 37 36 36 37 39 40 42 43 44 43 43 43 40 39 36 31 29 29 27 28 30 32 36 39 41 44 46 48 50 51 53 54 56 57 59 61 62 63 64 63 63 64
38 38 37 38 39 41 42 42 43 43 43 45 44 41 37 33 30 30 29 29 31 34 36 39 43 45 48 51 53 55 56 58 59 61 63 64 66 67 67 67 66 64 62
35 35 36 36 36 36 36 37 38 40 40 41 40 37 35 33 32 31 31 32 34 37 40 44 47 49 52 55 57 59 60 62 64 66 68 69 70 70 69 67 67 65 64
31 30 30 30 30 31 32 34 36 38 38 38 38 38 37 35 33 33 35 36 38 41 45 47 51 54 56 59 62 63 65 67 69 70 71 71 70 69 67 66 66 66 64
30 30 29 29 29 30 32 34 36 37 39 41 41 40 38 37 36 37 38 40 43 46 49 52 56 58 61 64 66 67 69 71 71 71 70 69 67 66 66 66 65 66 65
28 28 28 29 30 32 34 37 39 41 43 44 42 42 40 40 39 40 42 45 47 51 54 57 60 62 65 67 69 70 71 71 70 69 67 66 65 64 63 63 64 65 65
28 28 29 31 33 36 38 41 43 44 46 44 42 41 41 40 42 43 46 49 52 56 58 61 63 65 67 69 70 70 69 68 66 65 65 64 62 62 63 63 64 65 66
30 30 32 34 36 39 41 43 45 46 45 43 43 42 41 43 45 48 50 53 55 58 60 62 64 66 67 68 68 67 65 64 63 62 61 61 61 61 62 63 64 65 65
33 34 35 38 40 42 43 44 45 45 44 43 44 44 46 48 49 51 53 55 57 59 61 63 64 65 65 64 64 63 62 61 60 60 60 60 61 61 62 62 62 62 59
37 38 39 41 43 44 45 45 44 45 46 47 47 48 49 50 51 52 53 55 57 59 60 61 61 61 60 60 60 59 58 58 58 58 59 60 60 61 60 59 57 53 48
40 41 42 43 43 44 44 45 47 49 50 50 50 50 50 50 50 51 53 54 55 56 57 57 57 57 57 56 56 55 56 56 56 57 58 58 57 56 54 51 47 42 36
40 41 43 44 45 46 49 51 52 52 51 50 50 49 49 49 50 51 52 53 53 53 53 53 53 52 53 54 54 54 54 54 54 54 53 52 51 48 43 38 34 30 25
42 43 44 45 47 49 50 50 51 51 51 50 49 48 48 48 48 49 50 50 49 49 49 49 50 51 51 51 51 52 52 52 51 48 46 44 40 36 31 27 24 21 19
40 42 44 46 48 49 50 51 51 50 49 47 46 46 45 46 46 47 47 47 46 47 47 48 48 49 49 49 49 49 47 46 43 41 38 33 28 25 21 18 16 15 15
43 45 47 49 50 50 50 49 48 46 45 44 43 43 43 43 44 44 44 44 45 46 46 46 47 47 47 47 45 43 40 38 36 33 29 24 19 15 13 12 12 13 15
44 45 46 46 46 45 45 44 43 42 42 42 42 41 41 41 42 42 43 44 44 44 45 45 45 45 43 41 38 35 33 31 28 25 21 16 13 11 11 12 12 14 16
40 41 41 42 42 41 41 41 40 40 39 39 38 39 39 40 40 41 42 42 43 43 43 43 41 39 36 33 31 29 27 25 22 18 14 10 9 10 11 12 13 15 16
38 38 39 39 39 38 38 37 37 36 36 36 37 37 38 38 39 40 41 41 41 40 39 37 35 32 30 28 27 25 23 19 16 11 8 7 8 10 11 12 13 15 17
35 35 35 35 34 33 32 32 32 32 33 34 35 36 37 38 39 39 39 38 37 35 33 31 29 28 27 25 24 21 17 12 8 5 4 5 7 9 11 11 13 15 16
30 29 28 27 26 26 27 28 29 30 31 33 35 36 37 37 37 36 34 32 30 29 28 27 25 24 23 21 18 15 10 4 2 0 2 5 7 9 10 11 13 15 15
23 22 21 21 22 23 24 26 27 29 32 33 34 34 33 32 31 30 28 27 26 25 24 22 20 19 17 15 11 6 2 4 4 4 4 6 7 8 10 12 14 15 15

GEFSMW_500_meanwind_030.txt.gz
Wind_Speed
24 24 25 25 26 27 28 28 27 27 28 29 31 34 36 38 39 40 40 39 38 38 38 38 39 39 38 37 36 33 31 30 29 28 28 28 29 30 31 33 35 37 39
28 28 28 28 28 29 30 30 30 30 32 33 36 37 40 42 43 43 42 40 37 36 36 35 33 33 34 34 32 30 28 27 26 27 29 30 31 31 34 36 39 41 43
32 32 31 30 29 30 31 32 32 33 35 37 38 40 43 45 45 44 41 39 37 33 31 30 30 29 28 28 27 26 25 26 27 28 31 33 35 37 38 41 44 46 49
36 35 34 32 30 31 31 32 34 36 37 39 40 42 45 48 48 45 39 36 32 29 29 28 28 27 27 26 25 23 25 27 29 32 35 38 41 44 47 48 49 51 54
40 38 35 33 31 31 32 33 35 37 39 40 42 44 46 47 45 43 41 37 34 29 26 26 26 26 26 26 26 27 29 32 34 36 39 42 45 48 51 55 57 58 60
39 37 34 33 32 32 33 34 36 38 39 41 43 42 43 44 42 42 38 37 33 29 26 26 27 27 28 29 29 31 35 37 39 42 45 47 50 52 55 58 60 62 63
35 34 33 32 32 32 33 34 36 38 39 40 40 40 41 40 40 39 38 37 34 32 31 31 30 30 32 33 34 36 40 43 45 48 50 53 55 57 59 61 63 64 64
29 29 28 28 28 29 30 31 33 35 37 38 38 39 39 39 39 39 39 37 36 35 33 33 35 35 36 38 40 42 45 47 50 53 55 57 59 61 62 64 64 65 64
25 24 24 25 26 27 29 31 33 34 36 37 38 38 38 38 40 40 39 39 38 37 36 37 38 39 41 43 44 46 49 52 55 57 59 60 62 63 64 64 64 65 64
23 23 23 24 26 28 29 31 33 34 35 36 37 38 39 39 40 41 40 40 39 39 39 40 42 43 45 46 49 52 54 56 58 59 61 62 63 63 63 63 63 64 63
24 25 25 26 28 29 31 32 34 35 36 37 38 39 40 41 41 42 42 42 42 43 43 44 45 47 49 51 53 55 57 58 59 61 61 62 61 61 61 61 62 62 63
25 26 28 29 30 32 33 35 36 37 39 40 41 42 43 44 44 45 45 46 46 47 47 48 49 51 53 54 56 57 58 59 60 60 60 60 59 59 59 60 61 62 63
28 29 31 32 33 35 36 37 39 40 41 42 43 44 45 47 48 49 49 49 50 51 51 52 53 53 54 56 57 58 58 59 59 58 58 57 57 57 58 59 61 61 61
33 34 36 36 37 39 40 41 42 43 44 45 45 46 47 49 50 51 51 52 53 53 53 53 54 55 55 56 57 57 57 57 56 55 55 55 55 56 57 58 59 58 56
38 39 40 40 41 42 43 44 46 46 46 46 47 48 48 49 51 52 53 53 54 54 55 55 55 55 55 56 56 55 55 54 53 53 53 54 55 56 56 55 54 51 47
41 41 41 42 43 44 44 45 44 44 44 45 46 48 49 51 52 53 54 55 55 55 54 54 54 54 54 54 54 53 52 52 51 51 52 53 54 53 52 50 46 42 38
42 42 42 42 42 42 42 41 41 42 44 46 48 50 51 52 54 54 54 54 53 53 53 53 53 53 52 52 51 51 50 50 50 51 51 51 50 48 45 41 38 34 30
40 39 38 39 40 40 40 41 43 44 47 49 50 51 52 52 52 52 51 51 52 52 52 52 52 52 51 50 50 49 49 49 49 49 48 46 43 39 35 33 30 28 27
36 36 37 38 39 39 40 42 44 46 48 49 50 50 50 50 50 50 50 50 51 51 51 51 50 50 49 48 48 48 48 47 46 45 42 38 34 30 27 25 24 25 26
34 35 36 37 39 40 42 44 45 46 47 48 48 48 48 48 49 49 49 49 49 49 49 49 48 48 47 47 47 46 45 43 41 38 35 31 26 23 20 20 21 23 25
34 36 38 39 40 41 42 43 44 45 45 45 45 46 46 46 46 46 46 47 47 47 47 47 47 46 46 45 43 41 39 36 33 30 27 24 19 17 17 18 20 22 23
34 35 37 38 39 40 41 41 41 42 42 42 42 42 42 43 43 44 45 45 45 45 45 45 44 43 41 39 36 34 31 29 26 24 21 17 13 13 15 18 20 20 20
33 34 35 36 37 37 38 38 38 38 38 38 38 39 40 41 41 42 42 42 42 42 41 40 38 36 34 32 30 28 25 23 20 17 13 10 9 11 14 16 17 17 16
30 31 32 32 32 33 33 33 33 34 34 35 36 37 37 38 38 39 39 38 37 36 35 33 32 30 28 26 24 22 19 15 12 8 6 6 8 10 12 13 13 13 13
27 27 27 27 27 28 28 29 30 31 32 33 34 34 35 35 35 34 33 32 31 29 28 27 25 23 21 19 17 14 9 6 3 3 2 3 6 8 10 10 11 12 13
22 21 22 22 23 24 26 27 28 29 31 31 32 32 32 31 29 28 27 26 24 22 21 19 18 16 15 12 9 5 2 4 5 3 1 3 5 7 9 10 11 12 14

GEFSMW_500_meanwind_036.txt.gz
Wind_Speed
21 23 23 24 23 21 20 22 25 27 28 29 30 32 32 32 33 35 37 38 39 37 34 35 34 33 32 31 30 30 30 31 33 35 33 32 33 33 31 31 31 31 33
24 24 25 26 27 25 24 24 27 29 31 32 33 33 33 34 35 37 38 39 39 37 34 33 34 33 31 29 28 27 26 28 29 29 30 31 31 30 30 31 33 34 36
27 26 27 29 30 29 27 27 29 32 34 35 34 34 35 35 36 38 40 40 38 36 34 32 32 31 30 29 28 28 27 28 29 29 30 30 30 31 34 35 35 36 39
29 29 31 32 32 32 32 31 32 34 35 36 35 36 37 37 37 39 40 41 39 37 35 32 31 31 30 29 30 28 28 29 30 32 32 33 34 36 36 37 39 41 43
33 33 33 34 35 35 36 35 34 35 36 36 36 37 38 38 39 40 41 41 40 38 35 33 32 32 31 31 31 31 31 31 31 32 33 36 37 39 41 42 45 47 50
34 34 35 36 37 38 38 38 36 36 36 37 37 38 39 40 41 42 42 41 39 38 36 35 34 34 33 33 33 34 34 34 35 36 37 39 42 45 47 48 50 53 56
36 36 37 38 38 38 38 37 37 36 37 37 38 39 40 41 42 42 42 40 39 38 38 37 36 36 36 35 35 35 36 37 39 41 42 45 47 49 51 53 54 57 59
41 40 38 37 36 35 35 36 36 36 36 37 38 40 41 42 42 42 41 41 40 40 40 38 38 38 38 38 37 38 39 41 43 44 46 48 51 53 55 57 59 61 62
44 41 37 34 33 32 33 34 35 36 37 38 39 40 41 41 42 42 43 43 43 42 42 41 41 41 41 41 41 42 43 44 46 48 50 52 54 56 58 61 63 64 65
40 37 34 31 31 31 32 33 34 36 37 38 39 41 41 43 44 45 45 45 45 45 45 45 44 44 44 44 44 45 46 48 50 51 53 55 57 59 61 62 64 65 65
32 31 30 30 30 31 32 33 35 36 38 39 41 42 43 45 46 46 47 47 48 48 48 48 48 48 47 48 48 49 50 51 53 54 56 57 58 60 61 62 62 63 63
29 30 30 31 31 32 33 34 36 37 39 40 42 43 44 45 46 47 49 50 50 51 51 51 51 51 51 51 52 53 54 55 55 56 57 58 58 59 59 60 60 60 61
30 31 32 32 33 34 35 36 38 39 41 42 43 44 46 47 48 49 51 52 53 53 53 53 53 54 54 55 55 56 56 57 57 57 57 57 57 57 58 58 58 58 58
32 33 34 35 36 38 39 40 42 43 44 45 46 47 48 49 51 52 53 54 54 54 55 55 56 56 57 57 57 58 58 57 57 56 55 55 55 55 55 55 56 56 57
34 35 37 39 40 41 42 43 45 46 47 48 49 51 52 52 53 53 54 54 54 55 56 56 57 58 58 59 58 58 57 56 55 55 55 54 54 53 53 53 54 54 53
34 37 39 41 42 43 45 46 47 48 49 50 51 52 52 52 53 53 53 54 55 55 56 57 58 58 58 58 58 57 56 55 54 53 53 52 51 50 50 51 51 50 47
36 38 40 42 43 44 45 47 48 49 49 49 49 49 49 50 51 51 51 52 54 55 56 57 57 57 57 56 55 54 54 53 52 51 50 49 49 47 47 47 46 43 41
37 37 38 40 40 41 41 42 43 42 43 44 44 45 47 48 49 50 51 52 53 54 55 55 55 54 54 53 53 52 51 50 49 48 47 46 45 44 42 41 39 37 34
37 36 34 34 36 38 39 40 40 40 41 42 43 44 46 48 49 50 51 51 52 53 53 52 52 52 51 51 51 50 49 48 46 44 43 42 40 38 36 34 32 30 28
36 36 36 36 37 37 38 40 40 40 41 42 43 44 45 47 48 48 49 49 50 50 50 50 49 49 48 48 48 47 45 43 41 40 38 36 33 31 29 26 24 23 24
31 32 34 35 36 37 37 38 40 40 41 42 43 43 44 44 45 46 47 47 47 47 47 46 46 46 45 44 43 41 39 37 35 33 31 29 25 23 21 19 18 19 20
31 32 33 34 35 35 36 37 38 39 40 40 41 41 41 42 42 43 43 44 44 43 43 42 42 41 40 39 37 35 33 31 28 26 24 20 16 14 13 13 15 16 17
28 29 30 31 32 33 34 35 36 36 37 37 38 38 39 40 40 40 40 40 40 40 39 38 38 36 35 33 31 28 25 23 20 17 13 9 7 7 8 10 12 13 15
25 26 27 29 30 31 32 33 34 34 35 36 37 37 37 37 37 37 37 36 35 34 33 32 31 30 27 25 22 19 16 13 10 6 3 2 2 4 7 8 10 12 15
23 24 25 26 27 29 30 31 32 33 34 34 35 34 34 33 32 32 31 30 29 27 26 24 23 21 19 15 12 9 6 3 0 2 3 4 5 6 7 8 11 13 15
21 22 23 25 26 28 29 30 30 31 31 30 30 29 28 27 27 25 24 23 22 21 20 18 15 13 10 7 4 2 3 5 5 6 6 6 7 7 8 10 12 13 15

GEFSMW_500_meanwind_042.txt.gz
Wind_Speed
24 23 22 20 20 19 16 14 14 17 18 20 20 20 21 22 23 23 23 23 23 22 22 21 20 20 19 19 19 19 17 18 18 18 19 20 21 23 25 27 29 30 31
25 24 22 20 19 17 16 17 17 20 21 22 24 25 26 26 27 27 28 27 26 25 25 25 23 22 22 22 22 21 20 20 20 20 21 21 22 23 25 26 28 30 32
26 26 25 22 20 20 19 19 21 22 24 26 28 28 29 29 29 30 30 30 29 28 27 27 26 24 25 25 24 24 24 24 24 24 24 25 25 27 28 28 30 33 35
27 27 27 25 23 23 24 24 26 27 30 30 29 30 31 32 32 31 31 32 32 30 29 29 28 28 28 28 27 27 27 27 28 28 29 30 30 31 31 33 35 37 39
29 29 28 28 28 28 28 29 30 32 33 33 34 35 35 35 34 34 35 34 33 32 32 31 30 30 30 29 30 30 30 31 32 32 33 34 35 35 36 38 40 42 44
29 30 30 31 31 31 32 33 35 35 36 38 39 38 38 37 37 37 36 35 34 33 33 32 32 32 31 32 32 33 34 35 36 37 38 39 39 40 42 43 45 47 49
33 33 34 33 34 35 36 37 38 39 40 41 41 40 39 38 37 37 35 35 35 34 34 34 34 34 34 35 35 36 37 38 40 41 42 43 44 45 47 48 49 51 54
35 35 35 36 37 38 40 40 42 43 44 43 42 41 40 39 38 37 37 36 36 35 35 35 36 37 37 38 39 40 41 42 44 45 46 48 49 49 51 52 53 55 57
37 36 37 38 40 41 43 44 45 46 45 44 43 42 41 39 38 37 37 37 37 37 38 39 40 40 40 41 43 44 45 46 48 49 50 51 52 53 54 55 56 57 58
39 39 39 39 42 44 45 47 47 47 46 44 43 42 40 40 40 40 40 40 41 41 42 43 43 44 44 45 47 48 50 51 51 52 53 54 55 56 57 57 58 59 60
38 39 40 42 43 45 46 47 46 46 45 44 43 42 41 42 42 43 44 44 45 45 46 46 47 48 49 50 52 53 54 54 55 56 56 56 57 58 58 59 59 60 61
39 40 42 44 45 45 45 45 45 44 44 43 43 43 44 44 45 46 47 47 48 49 50 51 52 53 55 56 56 56 57 57 58 58 58 58 58 59 59 59 60 60 61
39 41 43 45 46 46 45 44 43 43 44 44 45 46 47 48 48 49 50 52 53 54 55 57 58 58 59 59 59 59 60 60 59 59 58 58 59 59 59 60 60 59 59
38 40 41 42 43 44 45 44 44 45 45 46 47 49 50 51 52 53 55 56 57 58 59 61 61 61 61 60 60 60 59 58 58 58 59 59 59 59 59 58 58 57 57
33 37 38 38 39 40 41 42 44 46 46 47 48 50 52 53 54 55 56 57 58 60 61 61 60 59 59 58 58 58 58 57 58 58 59 59 58 57 57 56 56 55 54
33 33 33 35 37 37 39 41 43 45 46 47 48 50 52 53 54 56 56 56 56 56 57 57 57 57 57 56 56 57 57 57 57 57 57 56 56 55 55 54 53 52 51
32 32 32 33 34 36 37 37 37 38 41 44 46 47 49 51 52 52 52 52 52 52 53 53 54 55 55 56 56 56 56 55 55 54 54 54 54 53 51 50 49 48 47
32 32 32 32 33 34 34 35 37 38 38 40 42 44 46 48 48 49 49 49 49 49 50 51 51 52 53 54 53 53 53 53 52 52 51 50 49 47 45 44 44 43 41
28 29 29 29 30 31 33 34 36 37 39 40 41 42 43 45 45 45 46 47 47 47 48 49 50 50 51 51 51 51 50 49 49 47 45 43 41 40 39 38 36 35 33
26 27 27 28 29 31 32 34 35 36 36 37 38 39 40 41 42 43 44 44 45 45 46 46 46 47 47 47 47 46 45 44 42 40 38 37 35 34 32 29 27 25 23
23 24 25 26 28 29 30 31 32 33 34 34 35 36 37 38 39 40 41 42 42 43 43 43 43 43 43 43 42 41 40 37 35 33 31 30 28 25 22 19 17 16 15
20 22 23 24 25 27 27 28 29 30 30 31 32 34 35 36 36 37 38 38 38 38 38 38 38 37 37 36 36 34 32 30 27 25 23 20 17 14 12 10 9 9 10
19 20 21 22 23 24 25 26 27 27 28 29 30 31 31 32 32 33 33 33 33 32 32 31 30 29 29 28 27 25 22 20 17 15 12 10 8 6 4 4 5 6 8
17 18 20 20 22 23 23 24 24 24 25 25 26 27 27 28 28 28 27 27 27 26 25 24 22 21 20 18 16 13 11 8 6 4 2 1 2 3 4 5 6 8 9
16 17 18 19 20 20 20 21 21 21 22 23 24 24 24 24 24 23 22 21 20 20 19 18 16 15 13 11 8 5 3 2 4 5 6 7 7 7 8 9 10 11 12
15 16 17 17 18 18 18 18 19 19 20 21 21 20 20 20 20 19 19 18 17 16 15 14 13 12 10 7 5 5 6 8 10 11 11 11 11 11 12 12 12 13 13

GEFSMW_500_meanwind_048.txt.gz
Wind_Speed
24 22 21 20 20 19 20 22 23 22 22 22 21 21 21 21 21 22 22 23 24 24 25 24 23 23 25 24 22 22 22 23 23 24 24 25 25 25 26 26 27 28 29
26 24 22 20 20 20 20 23 24 25 25 24 23 23 24 25 25 25 25 25 25 26 26 25 25 25 25 26 25 25 24 25 25 26 27 28 28 29 31 31 32 33 34
28 25 23 21 20 21 20 20 21 23 24 24 26 27 28 29 30 26 26 26 26 26 26 27 27 26 26 26 26 27 27 27 28 29 30 31 32 33 34 36 37 38 39
31 28 25 24 22 21 21 22 22 22 24 26 27 29 31 30 29 29 28 27 28 29 29 28 28 29 29 28 28 29 29 29 30 31 33 34 35 37 38 39 40 42 43
32 30 28 26 25 23 23 23 23 24 26 27 30 31 33 33 30 30 29 29 30 31 30 30 30 29 30 30 30 30 31 31 32 33 35 36 38 39 41 42 44 45 47
31 31 29 27 27 26 25 25 26 28 30 31 33 35 35 34 33 32 31 31 31 31 31 30 31 31 31 31 32 32 33 34 35 36 37 39 40 41 43 45 47 49 50
31 32 32 31 30 29 29 29 30 31 32 34 36 37 38 36 35 34 34 33 31 32 32 32 33 33 33 33 33 35 36 37 38 39 40 42 43 44 46 48 50 52 54
32 32 32 32 32 32 33 34 34 35 36 38 38 38 37 38 37 35 35 34 35 34 34 34 34 35 35 36 37 39 40 41 42 43 44 45 47 48 50 52 54 55 57
34 35 36 36 36 37 37 38 38 39 40 40 39 40 39 38 38 38 37 37 36 36 36 36 37 38 38 40 42 43 44 45 46 48 49 50 52 54 55 57 58 59 59
36 37 38 38 39 40 42 42 43 42 41 41 42 43 43 43 42 42 41 39 38 39 39 40 41 42 43 45 46 47 49 50 51 53 54 55 56 58 58 60 61 61 62
39 39 39 41 42 42 43 44 44 44 45 45 45 45 45 45 44 44 42 41 42 43 43 44 45 47 48 49 50 52 54 55 56 57 57 58 59 61 61 62 62 63 63
40 40 41 41 41 42 43 44 45 46 46 47 47 47 47 46 45 44 44 44 46 46 47 48 50 51 52 53 55 57 58 59 60 60 60 60 61 62 63 63 63 63 63
40 39 39 40 41 41 41 42 43 44 45 45 45 45 45 45 45 45 46 47 48 49 51 52 53 54 55 57 58 59 59 60 60 60 61 61 62 62 63 62 62 62 62
40 40 39 38 39 38 38 38 39 40 40 41 42 42 42 43 44 45 46 48 49 51 53 53 54 55 56 57 59 59 59 61 61 61 62 62 62 61 61 61 61 60 60
39 40 40 39 38 38 37 37 39 39 38 38 40 42 42 43 44 46 47 49 50 51 52 54 56 57 57 58 59 59 60 61 62 62 62 61 60 60 59 58 58 58 57
38 38 38 37 36 35 35 36 37 37 38 39 39 39 41 43 44 45 46 47 48 50 52 53 56 57 58 58 58 59 60 61 61 60 59 58 57 56 55 54 53 51 50
32 33 33 33 32 31 31 31 32 32 33 34 34 36 37 38 40 42 44 46 48 50 52 54 56 57 57 58 58 58 59 58 57 55 54 53 51 49 48 47 45 44 42
28 28 28 27 27 29 29 29 28 29 30 32 33 35 36 38 40 42 44 46 47 49 51 53 54 55 56 56 56 55 54 52 50 48 47 45 43 42 40 39 39 37 36
22 22 23 23 24 25 26 27 28 29 30 32 34 36 37 39 40 42 43 45 46 48 49 51 51 52 53 52 51 50 48 46 45 42 41 38 37 34 33 32 31 30 28
19 20 21 22 22 23 24 26 27 28 29 31 32 34 35 36 38 39 41 42 44 45 46 46 47 47 47 45 44 42 41 39 36 34 32 31 29 27 26 24 23 22 20
17 18 18 19 20 21 23 24 25 26 27 29 30 32 33 34 35 36 38 39 40 41 41 41 41 40 39 38 35 33 31 29 27 25 23 22 20 19 18 17 16 15 13
15 16 17 18 19 20 22 23 23 25 26 27 28 29 30 31 33 34 35 35 35 36 36 36 35 33 32 29 27 25 22 20 18 16 14 13 12 11 11 10 9 9 9
13 14 15 17 18 20 21 21 22 22 23 24 25 26 28 29 30 30 30 31 31 31 31 30 29 27 25 23 21 18 15 13 12 10 8 7 7 7 7 7 7 8 9
12 14 15 16 18 19 19 19 19 19 20 22 23 24 25 26 27 27 27 27 27 26 25 24 22 21 19 16 13 11 10 8 7 7 7 7 7 7 8 8 8 9 10
11 12 14 15 16 17 17 17 17 18 19 20 21 21 23 23 23 23 23 23 21 21 20 19 17 15 13 10 9 8 8 8 8 9 10 10 10 10 10 10 10 11 12
11 13 14 15 15 16 16 16 16 17 18 18 19 20 20 20 20 20 20 19 18 18 17 15 14 12 10 9 9 9 10 10 10 11 11 11 11 11 12 12 12 13 14

GEFSMW_500_meanwind_054.txt.gz
Wind_Speed
30 28 28 27 25 25 23 24 25 25 24 23 23 23 23 24 25 25 26 28 29 30 32 31 31 31 30 30 30 28 28 28 27 27 29 29 29 29 29 29 30 30 32
31 29 29 28 27 26 26 26 27 27 27 28 28 27 27 27 28 30 31 32 32 33 33 31 31 30 29 27 26 27 28 27 28 29 30 31 31 31 32 32 33 34 36
32 31 31 30 29 28 28 27 28 29 30 30 32 31 30 31 32 33 35 37 37 34 32 29 29 28 28 27 27 27 28 28 29 30 32 33 33 33 34 35 37 38 39
33 33 33 32 31 30 29 28 28 29 30 31 32 33 33 34 34 35 35 37 37 33 30 29 28 29 29 29 29 28 28 30 30 31 32 33 34 35 37 38 39 41 42
34 35 35 35 34 32 31 30 30 31 32 31 31 32 32 33 34 35 35 34 33 32 32 30 28 29 30 30 30 30 30 31 31 32 33 35 36 38 40 41 42 44 45
31 33 36 36 34 33 32 31 32 31 32 32 33 33 32 33 33 35 35 34 34 34 33 31 30 29 29 30 30 32 32 32 32 33 36 38 39 41 42 44 46 48 49
27 29 32 34 35 35 34 33 32 32 32 33 33 34 34 35 37 38 39 38 38 37 35 32 32 30 30 31 33 34 34 35 35 37 39 41 43 44 46 47 49 51 53
26 27 29 32 34 34 34 34 34 33 33 36 36 36 38 39 40 41 42 42 42 40 37 36 35 33 33 35 35 37 38 38 40 41 42 44 46 48 49 51 53 55 57
26 28 29 30 32 33 34 34 35 35 36 37 38 39 40 41 43 44 45 46 45 43 42 42 42 38 38 39 39 40 41 42 43 44 46 48 50 52 53 55 57 59 61
28 29 30 31 33 34 34 35 36 37 38 39 41 42 43 45 45 46 47 48 47 47 47 46 45 43 42 43 44 44 46 47 47 49 51 52 54 56 57 60 62 63 65
30 31 32 33 34 35 36 37 39 40 41 42 43 44 45 45 47 47 48 47 47 48 48 47 47 46 47 47 47 47 48 50 51 53 55 56 57 59 61 63 64 66 67
31 32 33 35 36 37 38 39 40 41 42 43 43 44 45 46 45 46 46 47 47 46 47 47 48 48 48 48 48 49 51 53 55 56 57 58 60 62 64 65 67 67 66
34 35 36 37 39 39 40 41 42 43 43 44 45 45 45 45 45 45 46 46 45 45 46 47 48 49 49 50 51 53 55 57 58 59 60 61 63 63 63 63 62 61 59
35 36 37 38 39 40 40 41 42 43 43 42 42 42 42 44 43 43 43 44 45 45 46 47 48 50 51 52 53 55 56 57 59 60 60 60 61 60 58 56 55 55 54
33 34 35 35 36 38 38 39 39 40 40 40 41 41 41 41 42 43 44 44 45 45 46 46 48 49 51 52 54 56 57 58 58 58 57 56 56 54 53 52 50 48 47
30 32 32 33 33 34 35 36 36 37 37 37 38 39 39 40 41 42 42 43 44 45 45 46 47 49 50 52 53 54 54 54 54 53 53 52 50 48 46 45 43 42 41
30 29 29 28 29 29 30 30 31 32 33 34 35 37 37 38 39 40 41 42 43 44 45 46 48 49 50 51 51 51 50 50 50 48 47 46 44 42 41 39 37 36 34
25 25 25 25 26 27 27 28 29 30 31 31 32 34 35 36 37 37 38 39 41 42 43 44 46 47 47 48 48 47 47 47 45 44 43 41 38 36 34 32 30 29 28
22 23 23 23 24 24 25 25 26 27 28 28 29 31 32 33 34 35 36 37 39 40 41 42 43 43 43 44 44 43 42 40 38 36 33 31 28 26 24 23 22 21 20
20 21 21 22 22 23 23 24 25 25 26 26 28 29 30 30 31 32 33 34 35 36 37 38 38 39 39 38 37 35 33 31 28 25 23 21 18 17 16 16 15 15 15
18 19 20 20 20 21 21 21 22 23 24 24 25 26 26 27 27 28 30 31 32 33 33 34 33 33 32 31 28 26 23 21 19 17 15 13 12 12 12 12 12 12 13
16 17 18 18 18 19 19 20 21 21 22 22 23 23 23 24 25 26 27 28 29 29 28 28 27 27 26 23 20 17 15 13 12 11 10 9 9 9 9 10 11 12 12
14 15 15 16 17 18 18 19 19 20 20 20 20 21 21 22 23 23 24 25 25 24 24 23 22 20 18 16 14 12 10 10 9 8 8 8 8 9 10 11 12 13 13
12 13 14 15 16 17 17 18 19 19 18 18 19 19 19 19 20 21 21 22 21 21 20 18 17 15 14 12 11 9 8 8 8 8 9 9 9 10 11 12 13 14 14
10 11 13 14 15 16 17 17 17 17 17 17 18 17 17 18 18 18 19 19 18 17 16 14 12 11 10 10 9 8 8 8 8 8 9 10 10 11 11 12 13 14 14
10 11 13 14 15 16 16 16 15 15 15 16 15 16 16 16 16 16 16 16 15 14 12 11 9 9 9 9 8 8 8 8 9 9 10 10 11 11 12 12 13 14 14

GEFSMW_500_meanwind_060.txt.gz
Wind_Speed
32 31 31 29 28 26 24 22 21 20 20 20 21 21 22 23 23 24 25 25 26 27 28 29 31 32 32 33 34 33 32 31 30 30 30 30 30 29 29 31 32 33 34
31 30 31 31 30 27 25 24 22 21 22 22 23 24 25 26 27 28 29 29 30 30 32 33 33 34 34 34 33 32 32 30 29 29 30 31 30 29 30 32 33 33 34
32 32 32 31 29 28 26 26 24 24 25 25 25 26 27 28 30 32 33 33 33 33 34 34 34 34 33 32 30 30 30 31 31 31 31 31 31 31 31 32 33 34 36
29 28 29 29 29 29 28 28 27 27 27 27 27 28 29 30 31 33 35 36 35 35 34 33 33 33 33 31 29 29 29 31 30 30 30 31 32 33 33 34 35 36 38
28 28 29 30 31 30 30 29 29 29 29 30 29 30 30 31 33 34 33 34 35 35 34 34 33 32 31 30 31 30 31 31 31 31 32 32 34 35 36 37 39 40 42
27 27 29 30 31 32 32 32 31 31 31 33 32 32 33 34 35 35 35 34 35 35 35 34 32 32 31 32 32 33 33 34 33 34 35 35 37 38 40 41 43 45 47
27 27 29 30 32 33 32 32 32 32 33 34 34 34 34 35 35 35 35 35 35 35 35 34 33 33 33 34 35 36 36 35 37 38 38 39 40 41 43 45 47 49 51
26 27 28 30 32 32 33 34 35 35 36 37 37 36 35 36 37 36 36 37 36 35 34 34 35 36 35 36 37 38 39 39 40 41 41 43 43 45 47 49 50 52 54
25 25 26 27 29 31 34 35 36 37 37 38 39 38 38 38 38 38 38 39 38 38 37 37 37 38 39 40 40 41 42 42 42 43 45 46 47 48 50 52 54 56 57
25 25 25 26 28 30 32 32 34 35 36 38 39 38 38 39 40 40 41 41 41 40 39 39 40 41 42 43 43 43 44 45 46 47 48 49 50 51 53 54 55 56 57
25 26 27 27 28 29 30 31 33 34 36 37 37 37 39 41 42 42 43 42 41 42 42 42 43 44 46 46 45 45 47 47 48 48 49 51 51 52 53 54 55 55 55
26 27 28 29 30 31 32 33 33 34 36 36 37 38 40 41 42 43 43 43 44 44 44 44 45 46 47 47 46 47 48 50 51 51 52 52 53 53 53 54 54 55 55
27 27 28 29 31 32 33 34 35 35 36 38 38 39 41 42 43 43 44 44 45 45 45 46 47 48 47 47 48 49 50 51 51 52 53 53 53 54 54 55 55 56 56
27 29 30 31 32 34 35 35 36 37 38 39 40 41 42 43 43 44 44 45 46 46 46 47 47 47 48 48 49 49 51 51 52 53 54 54 55 55 54 54 55 55 55
27 28 30 31 32 34 35 36 37 38 39 40 41 41 42 43 43 43 44 44 44 45 45 45 45 46 47 48 49 50 51 52 53 53 53 53 53 52 52 51 50 50 49
27 28 30 31 32 33 35 36 37 38 38 39 40 40 41 41 41 41 42 42 42 43 43 43 44 45 46 47 48 49 50 51 51 50 49 49 48 47 47 45 45 43 41
27 28 30 31 32 33 34 35 35 35 35 36 36 37 37 38 38 38 38 39 39 39 40 41 42 43 44 45 47 47 47 46 45 44 43 42 41 39 37 35 33 31 29
25 26 27 28 28 29 30 30 31 32 32 33 34 34 34 35 35 35 36 36 36 37 38 39 40 41 42 42 42 41 40 39 37 37 35 33 31 29 27 26 24 22 21
22 23 23 24 25 26 27 27 28 28 29 30 30 30 30 30 31 31 31 32 33 34 35 36 37 38 38 37 36 34 33 32 31 29 26 23 21 20 19 18 17 16 15
22 23 24 24 24 25 25 25 25 25 26 26 27 27 27 27 27 28 29 30 30 31 31 32 32 32 31 30 29 28 27 25 22 20 17 16 15 15 14 13 13 12 13
19 20 20 21 21 21 22 22 23 23 23 23 24 24 24 24 25 26 26 26 27 27 28 28 28 27 27 26 24 22 20 17 15 14 13 13 12 12 12 12 12 12 13
16 16 17 18 18 19 20 20 21 21 20 20 21 21 21 22 22 23 23 23 24 24 24 23 23 23 21 20 18 16 14 13 12 11 11 11 11 12 12 12 12 13 13
14 14 14 15 16 16 17 17 18 18 19 19 19 19 20 20 20 21 21 21 21 21 20 20 20 18 17 16 14 13 12 10 10 10 10 11 11 12 12 13 13 13 13
11 12 12 12 13 14 15 16 17 17 18 18 18 18 18 18 18 18 18 18 18 18 18 17 16 15 14 13 12 11 10 9 10 10 10 10 10 11 12 12 13 13 14
11 11 11 11 12 14 15 16 17 17 17 17 17 16 16 16 17 17 16 16 16 16 15 14 13 12 11 10 10 9 8 8 8 9 10 10 10 11 11 12 13 13 14
10 10 11 11 13 15 16 16 17 16 16 16 15 15 15 15 15 15 14 14 14 14 13 11 10 9 9 8 8 7 7 7 8 9 9 10 11 11 11 12 13 14 14